Other Surface Observations
Issued by NWS

Current Version | Previous Version | Text Only | Print | Product List | Glossary On
Versions: 1 2 3 4 5 6 7 8 9 10 11 12 13 14 15 16 17 18 19 20 21 22 23 24 25 26 27 28 29 30 31 32 33 34 35 36 37 38 39 40 41 42 43 44 45 46 47 48 49 50
000
SXUS52 KTAE 011818
OSOTAE
OSOTAE
North Florida/South Alabama/Southwest Georgia Weather Roundup
National Weather Service Tallahassee Florida
200 PM EDT MON SEP 01 2014

Note: "fair" indicates few or no clouds below 12,000 feet with no
significant weather and/or obstructions to visibility.

!FLZ017-115-028-034-025-011900
...North Florida...

CITY           SKY/WX    TMP DP  RH WIND       PRES   REMARKS
TALLAHASSEE    PTSUNNY   93  70  46 SW3       30.09F HX  99
APALACHICOLA   SUNNY     89  76  65 SE9       30.10F HX 100
PERRY          MOSUNNY   90  70  51 CALM      30.11F HX  95
CROSS CITY       N/A     93  75  55 S6        30.10F HX 104
HOMERVILLE     FAIR      93  73  52 CALM      30.10F HX 102
JACKSONVILLE   PTSUNNY   92  71  50 N3        30.09F HX  98
$$

!FLZ112-006-005-002-011-011900
...Florida Panhandle...

CITY           SKY/WX    TMP DP  RH WIND       PRES   REMARKS
MARIANNA       SUNNY     93  72  50 CALM      30.09F HX 101
BONIFAY        NOT AVBL
PANAMA CITY NW FAIR      92  73  53 S9G16     30.09F HX 100
TYNDALL AFB    SUNNY     90  79  70 S12       30.11F HX 105
TYND DRONE APT FAIR      90  79  70 S8        30.09F HX 105
DE FUNIAK SPR  FAIR      89  73  58 S7        30.10F HX  96
EGLIN AFB      MOSUNNY   89  75  62 S10       30.10F HX  99
DESTIN         MOSUNNY   90  76  63 SE9       30.10F HX 101
HURLBURT       MOSUNNY   90  72  54 S9        30.09F HX  96
CRESTVIEW      MOSUNNY   93  71  48 S8        30.10F HX 100
PENSACOLA      MOSUNNY   89  74  60 S14       30.10S HX  98
$$

!ALZ063-066-011900
...South Alabama...

CITY           SKY/WX    TMP DP  RH WIND       PRES   REMARKS
DOTHAN         MOSUNNY   95  66  38 SW9       30.13F HX  98
OZARK CAIRNS   SUNNY     94  69  44 VRB7      30.09F HX  99
FT RUCKER HELI MOSUNNY   93  69  45 VRB7      30.08F HX  98
RUCKER HELI 3  FAIR      93  69  45 VRB7G17   30.12F HX  98
RUCKER HELI 2  FAIR      92  67  43 SE5       30.09F HX  95
FLORALA APT    NOT AVBL
ANDALUSIA      MOSUNNY   97  70  41 S8        30.09F HX 103
TROY           MOSUNNY   93  68  43 VRB5      30.10F HX  97
EUFALA         FAIR      96  70  42 W7        30.08F HX 102
MOBILE         PTSUNNY   90  73  57 SE14      30.09F HX  98
$$

!GAZ120>161-011900
...Southwest and South Central Georgia...

CITY           SKY/WX    TMP DP  RH WIND       PRES   REMARKS
THOMASVILLE    FAIR      91  70  49 NE5       30.11F HX  97
BAINBRIDGE     SUNNY     97  73  46 W3        30.09F HX 107
MOODY AFB      SUNNY     92  72  52 NE2       30.11F HX 100
VALDOSTA       MOSUNNY   92  71  50 VRB5      30.10F HX  98
MOULTRIE       SUNNY     91  68  46 CALM      30.11F HX  95
BLAKELY        SUNNY     97  66  36 S10         N/A  HX 100
ALBANY         SUNNY     92  69  47 CALM      30.10F HX  97
TIFTON         FAIR      92  66  43 CALM      30.10F HX  94
FITZGERALD     FAIR      94  69  43 SW5       30.12F HX  99
CORDELE        FAIR      96  67  39 SE5       30.10F HX 100
AMERICUS       MOCLDY    95  68  41 S7        30.11S HX  99
$$

!GMZ750-755-770-775-011900
...Coastal and Buoy Obs...

STATION/POSITION TIME  TEMP    WIND        PRES    VSBY  WAVE
                       AIR SEA DIR/SP/G                  HT/PER
                 (UTC) (F)     (DEG/KT/KT) (MB)    (MI)  (FT/S)
KEATON BEACH     1800   84     220/  8/  9 1019.7F
CEDAR KEY        1800   87     220/  6/  9 1020.0F
C TOWER          1800   84     120/  7/  8 1019.7F
APALACHICOLA BUO 1800   83 86   50/ 10/ 10 1019.4F         2/ 6
PANAMA CITY BUOY 1750   85 87  130/ 10/ 12 1019.1F         4/ 6
MOBILE BUOY      1800          VRB 12        N/A
ORANGE BCH AL BU 1800   85 86  140/ 10/ 12 1018.9F         3/ 8
$$



USA.gov is the U.S. government's official web portal to all federal, state and local government web resources and services.